Back to catalog

DELTA 1 DEB

AliveSSO
NORAD 37656·DEBRIS·🇺🇸 United States

Launched Mar 5, 1978 from Vandenberg Space Force Base

Loading…

Next Passes (next 24 hours)

TLE

AgingSource: Space-Track

Epoch: Sep 3, 2026, 05:33 UTC

1 37656U 78026JT  26246.23149503  .00000164  00000-0  11507-3 0  9995
2 37656  99.1537 249.3695 0018812 163.8281 196.3494 14.11815459202953

Track DELTA 1 DEB in real time with AllMySat

Download on the App Store